Home > Weather > Cadiz > Past weeks

Flag for Spain Past Weather in Cadiz, Cádiz, Spain — Yesterday and Last 2 Weeks

Now
90 °F

Passing clouds.


Feels Like: 90 °F
Forecast: 74 / 90 °F
Wind: 20 mph from Southeast

Location: Rota Airport

Current Time: Aug 26, 2016 at 2:10:35 PM

Latest Report: Aug 26, 2016 at 1:00 PM


Visibility: N/A

Pressure: 29.92 "Hg

Humidity: 41%

Dew Point: 63 °F

Location of CadizLocation

Past Weather in Cadiz — Graph

°F

Cadiz Temperature Yesterday

Maximum temperature yesterday: 91 °F (at 4:00 PM)
Minimum temperature yesterday: 77 °F (at 3:00 AM)
Average temperature yesterday: 82 °F

High & Low Weather Summary for the Past Weeks

 TemperatureHumidityPressure
High93 °F (Aug 22, 3:00 PM)94% (Aug 17, 12:00 AM)30.09 "Hg (Aug 17, 12:00 AM)
Low63 °F (Aug 21, 8:00 AM)28% (Aug 13, 2:00 PM)29.83 "Hg (Aug 25, 5:00 PM)
Average80 °F57%29.99 "Hg
* Reported Aug 11 1:00 PM — Aug 26 1:00 PM, Cadiz, Weather by CustomWeather, © 2016

Note: Actual official high and low records may vary slightly from our data, if they occured in-between our weather recording intervals... More about our weather records

Advertising

Cadiz Weather History for the Previous 24 Hours

Scroll right to see more
 ConditionsComfort  
Time TempWeatherWind HumidityBarometerVisibility
1:00 PM
Fri, Aug 26
90 °FPassing clouds.20 mph41%29.92 "HgN/A
12:00 PM86 °FThundershowers. Passing clouds.21 mph43%29.92 "HgN/A
11:00 AM84 °FSunny.20 mph45%29.92 "Hg10 mi
10:00 AM81 °FPassing clouds.17 mph51%29.92 "HgN/A
9:00 AM79 °FSunny.14 mph51%29.89 "Hg10 mi
8:00 AM77 °FClear.15 mph54%29.89 "Hg10 mi
7:00 AM75 °FClear.8 mph50%29.89 "Hg10 mi
6:00 AM77 °FClear.9 mph47%29.89 "Hg10 mi
5:00 AM79 °FPassing clouds.13 mph48%29.86 "HgN/A
4:00 AM79 °FPassing clouds.22 mph54%29.86 "HgN/A
3:00 AM79 °FThundershowers. Passing clouds.21 mph51%29.83 "Hg6 mi
2:00 AM75 °FThundershowers. Passing clouds.24 mph69%29.86 "Hg6 mi
1:00 AM79 °FThundershowers. Passing clouds.22 mph51%29.89 "HgN/A
12:00 AM82 °FClear.23 mph45%29.86 "Hg10 mi
11:00 PM
Thu, Aug 25
81 °FClear.24 mph51%29.86 "Hg10 mi
10:00 PM81 °FThundershowers. Partly sunny.21 mph51%29.89 "HgN/A
9:00 PM81 °FThundershowers. Scattered clouds.15 mph51%29.89 "HgN/A
8:00 PM82 °FThundershowers. Scattered clouds.14 mph51%29.86 "HgN/A
7:00 PM88 °FPassing clouds.16 mph43%29.86 "HgN/A
6:00 PM88 °FSunny.22 mph38%29.86 "Hg10 mi
5:00 PM91 °FPassing clouds.24 mph34%29.83 "HgN/A
4:00 PM91 °FSunny.18 mph36%29.89 "Hg10 mi
3:00 PM90 °FPassing clouds.20 mph41%29.89 "HgN/A
Weather by CustomWeather, © 2016

See weather overviewHow to use our weather pages